OBJECT B, 57289

Orbit data source: Space-Track

You're viewing an Uncataloged Satellite

Recently launched and/or uncataloged satellites may have evolving metadata. Metadata may include but not limited to: Owner, Maufacturer, Bus, Motor, and Mission.

OBJECT B, 57289 is a satellite owned by Zhongguo Xingwang (CN) in LEO that was launched on Sun, 09 Jul 2023 UTC via a CHANG ZHENG 2C/YZ-1S launch vehicle from the Jiuquan Satellite Launch Center, China (JSC). Unknown objects in Earth's orbit typically refer to objects detected orbiting the Earth but have not yet been identified or cataloged. These objects could be anything from previously untracked satellites, spent rocket stages, debris from satellite collisions, or even natural meteoroids temporarily captured by Earth's gravity.

Loading next visibility...
Identifier
57289, 2023-095B
Orbit
LEO
Country
Flag of CNCN / PRC
Related business
Manufacturer
CAST
Mission
Operational Civil Communications
Bus & Motor
Unknown
Mass
~300 kg wet, ~300 kg dry
Launch date (UTC)
2023-07-09 (3 years ago)
Launch vehicle
CHANG ZHENG 2C/YZ-1S
Launch site
Jiuquan Satellite Launch Center, China (JSC)
Object type
Unknown
Shape & HBR
Box + 2 Pan, 1.3 m
Radar Cross Section
2.320 m², Large (>1 m²)

Expand to show TLE details & history
Last TLE update: 22 hours ago

TLE from 22 hours ago
0 OBJECT B
1 57289U 23095B   26172.50596895  .00000041  00000-0  47335-4 0  9996
2 57289  86.5029   3.2889 0016507 170.4682 189.6777 13.39551519144332
Epoch: 2026-06-21T12:08Z
TLE epoch observation values (Epoch: 2026-06-21T12:08:35.717Z)
Latitude
-0.00002°
Longitude
-88.56519°
Altitude
1,126.056 km
Speed
7.284 km/s
True Right ascension
00h 13m 09s
True Declination
0° 00' 00"
Sunlit
Object was in daylight at epoch
Visualization orbit readout
Latitude
Unknown
Longitude
Unknown
Altitude
Unknown
Speed
Unknown
Apparent Right ascension
Unknown
Apparent Declination
Unknown
Sunlit
N/A
Visualization observer readout
Local Sidereal Time
21:30:51
Azimuth
Unknown
Elevation
Unknown
Doppler factor
Unknown
Orbital elements
Apogee altitude
1,120.406 km
Perigee altitude
1,095.691 km
Semi-major axis
7,486.185 km
Eccentricity
0.00165
Inclination
86.5029°
RAAN
3.2889°
Arg. of periapsis
170.4682°
True anomaly
189.64597°
Mean anomaly
189.6777°
Eccentric anomaly
189.66183°
Mean motion
3.35083 °/min
Orbital period
107.44 mins
BSTAR
0.000047335
Loading maneuver chart data...
Computing Atmospheric mass density...
Loading historical data...
Loading historical data...
Loading historical data...
Loading historical data...
Loading historical data...
Loading historical data...
Loading historical data...
Other satellites on launch #95 in the year 2023 (2023-07-09 UTC)

Documentation

Showing up to 5 results
|